Location: Ash Observatory
(39.7321°N, 75.2004°W)
Time: 06:30:48
(UTC-04:00)

N. Korean satellite - Visible Passes

Search period start: 17 October 2018 00:00
Search period end: 27 October 2018 00:00
Orbit: 459 x 510 km, 97.2° (Epoch: 16 October)

Date Brightness Start Highest point End Pass type
(mag) Time Alt. Az. Time Alt. Az. Time Alt. Az.
17 Oct 9.2 19:17:13 10° SSW 19:20:21 26° W 19:23:32 10° NW visible
18 Oct 9.4 06:44:44 10° NE 06:47:50 25° E 06:50:52 10° SSE visible
18 Oct 7.6 18:52:14 10° S 18:55:52 54° W 18:59:33 10° NNW visible
19 Oct 10.3 06:21:32 10° ENE 06:23:14 13° E 06:24:55 10° ESE visible
20 Oct 10.1 19:38:30 10° SW 19:40:40 15° W 19:42:52 10° WNW visible
21 Oct 8.9 19:12:50 10° SSW 19:16:06 29° W 19:19:25 10° NW visible
22 Oct 9.6 06:40:38 10° NE 06:43:32 22° E 06:46:23 10° SSE visible
22 Oct 7.3 18:47:56 10° S 18:51:37 61° W 18:55:20 10° NNW visible
23 Oct 10.5 06:17:48 10° ENE 06:18:55 11° E 06:20:01 10° ESE visible
24 Oct 9.9 19:33:56 10° SW 19:36:22 17° W 19:38:50 10° NW visible
25 Oct 8.7 19:08:25 10° SSW 19:11:48 32° W 19:15:12 10° NNW visible
26 Oct 9.8 06:36:30 10° NE 06:39:12 20° E 06:41:50 10° SE visible
26 Oct 7.0 18:43:36 10° S 18:47:19 70° W 18:51:03 10° NNW visible
